Location: Oberkirch
(48.5323°N, 8.0787°E)
Time: 00:05:26
(UTC+00:00)

SO-50 - Visible Passes

Search period start: 06 March 2026 00:00
Search period end: 16 March 2026 00:00
Orbit: 568 x 673 km, 64.6° (Epoch: 5 March)

Date Brightness Start Highest point End Pass type
(mag) Time Alt. Az. Time Alt. Az. Time Alt. Az.
6 Mar ? 01:31:02 12° NE 01:31:02 12° NE 01:31:46 10° NE visible
6 Mar ? 03:08:13 22° N 03:10:33 35° NE 03:14:56 10° ESE visible
6 Mar ? 04:46:05 10° NW 04:50:41 46° WSW 04:55:12 10° SSE visible
7 Mar ? 01:48:57 16° NE 01:48:57 16° NE 01:50:50 10° ENE visible
7 Mar ? 03:26:09 28° NNW 03:28:32 57° NE 03:33:13 10° SE visible
7 Mar ? 05:04:18 10° WNW 05:08:13 25° WSW 05:12:02 10° S visible
7 Mar ? 19:16:31 10° S 19:19:24 32° SSE 19:19:24 32° SSE visible
7 Mar ? 20:56:30 10° WSW 20:56:43 11° WSW 20:56:43 11° WSW visible
8 Mar ? 02:07:11 21° ENE 02:07:11 21° ENE 02:09:43 10° E visible
8 Mar ? 03:44:24 36° NW 03:46:22 83° SW 03:51:06 10° SE visible
8 Mar ? 05:23:21 10° W 05:25:34 13° WSW 05:27:46 10° SW visible
8 Mar ? 17:57:47 10° SE 17:59:21 12° ESE 18:00:56 10° E visible
8 Mar ? 19:33:50 10° SSW 19:38:29 76° SE 19:38:56 69° ENE visible
8 Mar ? 21:15:02 10° W 21:16:14 16° WNW 21:16:14 16° WNW visible
9 Mar ? 02:25:48 26° E 02:25:48 26° E 02:28:19 10° ESE visible
9 Mar ? 04:03:03 39° W 04:04:01 45° WSW 04:08:30 10° SSE visible
9 Mar ? 18:13:06 10° SSE 18:16:41 22° ESE 18:20:21 10° ENE visible
9 Mar ? 19:51:39 10° SW 19:56:16 62° NW 19:58:08 35° NNE visible
9 Mar ? 21:33:52 10° WNW 21:35:25 15° NW 21:35:25 15° NW visible
10 Mar ? 02:44:51 22° ESE 02:44:51 22° ESE 02:46:34 10° SE visible
10 Mar ? 04:22:08 24° SW 04:22:08 24° SW 04:25:18 10° SSW visible
10 Mar ? 18:29:48 10° S 18:34:09 42° ESE 18:38:38 10° NE visible
10 Mar ? 20:09:50 10° WSW 20:14:12 37° NW 20:16:56 20° NNE visible
10 Mar ? 21:52:54 10° NW 21:54:10 13° NW 21:54:10 13° NW visible
11 Mar ? 03:04:15 11° SSE 03:04:15 11° SSE 03:04:24 10° SSE visible
11 Mar ? 18:47:08 10° SSW 18:51:47 78° SE 18:56:35 10° NE visible
11 Mar ? 20:28:24 10° W 20:32:17 25° NNW 20:35:18 14° NNE visible
11 Mar ? 22:11:57 10° NNW 22:12:31 11° NNW 22:12:31 11° NNW visible
12 Mar ? 19:04:57 10° SW 19:09:33 60° NW 19:14:19 10° NE visible
12 Mar ? 20:47:13 10° WNW 20:50:30 18° NNW 20:53:19 12° NNE visible
13 Mar ? 19:23:08 10° WSW 19:27:29 36° NW 19:31:56 10° NNE visible
13 Mar ? 21:06:14 10° NW 21:08:49 14° NNW 21:11:05 11° NNE visible
14 Mar ? 18:00:23 10° SSW 18:05:02 80° SE 18:09:50 10° NE visible
14 Mar ? 19:41:42 10° W 19:45:34 24° NNW 19:49:31 10° NNE visible
14 Mar ? 21:25:16 10° NNW 21:27:13 12° N 21:28:39 11° N visible
15 Mar ? 18:18:12 10° SW 18:22:49 58° NW 18:27:33 10° NE visible
15 Mar ? 20:00:31 10° WNW 20:03:46 18° NNW 20:07:04 10° NNE visible
15 Mar ? 21:43:57 10° NNW 21:45:39 12° N 21:46:06 12° N visible
